owner,sensor,date,latitude,longitude,vertical_datum,direction_of_sea_water_velocity,sea_water_speed,upward_sea_water_velocity,qcFlag 
TABS,ioos:station:wmo:42043:1,1996-09-01T00:00:00Z,28.9818,-94.9186,2.0,242.8747155,20.59516934,-99999.0,'11111222,11111222,99999999' 
TABS,ioos:station:wmo:42043:1,1996-09-01T00:30:00Z,28.9818,-94.9186,2.0,242.7614941,22.46061664,-99999.0,'11111222,11111222,99999999' 
TABS,ioos:station:wmo:42043:1,1996-09-01T01:00:00Z,28.9818,-94.9186,2.0,244.1832456,25.32786805,-99999.0,'11111222,11111222,99999999' 
TABS,ioos:station:wmo:42043:1,1996-09-01T01:30:00Z,28.9818,-94.9186,2.0,247.1869427,26.5139963,-99999.0,'11111222,11111222,99999999' 
TABS,ioos:station:wmo:42043:1,1996-09-01T02:00:00Z,28.9818,-94.9186,2.0,248.0891708,26.34278839,-99999.0,'11111222,11111222,99999999' 
TABS,ioos:station:wmo:42043:1,1996-09-01T02:30:00Z,28.9818,-94.9186,2.0,251.4696558,28.60284077,-99999.0,'11111222,11111222,99999999' 
TABS,ioos:station:wmo:42043:1,1996-09-01T03:00:00Z,28.9818,-94.9186,2.0,254.2762615,26.93798248,-99999.0,'11111222,11111222,99999999' 
TABS,ioos:station:wmo:42043:1,1996-09-01T03:30:00Z,28.9818,-94.9186,2.0,256.9604846,25.0868332,-99999.0,'11111222,11111222,99999999' 
TABS,ioos:station:wmo:42043:1,1996-09-01T04:00:00Z,28.9818,-94.9186,2.0,263.9037318,23.82471406,-99999.0,'11111222,11111222,99999999' 
TABS,ioos:station:wmo:42043:1,1996-09-01T04:30:00Z,28.9818,-94.9186,2.0,271.9753503,21.76292719,-99999.0,'11111222,11111222,99999999' 
TABS,ioos:station:wmo:42043:1,1996-09-01T05:00:00Z,28.9818,-94.9186,2.0,278.8471602,20.3521252,-99999.0,'11111222,11111222,99999999' 
TABS,ioos:station:wmo:42043:1,1996-09-01T05:30:00Z,28.9818,-94.9186,2.0,281.1332158,17.76428439,-99999.0,'11111222,11111222,99999999' 
TABS,ioos:station:wmo:42043:1,1996-09-01T06:00:00Z,28.9818,-94.9186,2.0,281.0221483,17.15645651,-99999.0,'11111222,11111222,99999999' 
TABS,ioos:station:wmo:42043:1,1996-09-01T06:30:00Z,28.9818,-94.9186,2.0,290.9936189,15.79867399,-99999.0,'11111222,11111222,99999999' 
TABS,ioos:station:wmo:42043:1,1996-09-01T07:00:00Z,28.9818,-94.9186,2.0,311.8540385,13.39865665,-99999.0,'11111222,11111222,99999999' 
TABS,ioos:station:wmo:42043:1,1996-09-01T07:30:00Z,28.9818,-94.9186,2.0,310.3685836,11.73386552,-99999.0,'11111222,11111222,99999999' 
TABS,ioos:station:wmo:42043:1,1996-09-01T08:00:00Z,28.9818,-94.9186,2.0,299.5771286,12.6826062,-99999.0,'11111222,11111222,99999999' 
TABS,ioos:station:wmo:42043:1,1996-09-01T08:30:00Z,28.9818,-94.9186,2.0,291.1432378,14.05620859,-99999.0,'11111222,11111222,99999999' 
TABS,ioos:station:wmo:42043:1,1996-09-01T09:00:00Z,28.9818,-94.9186,2.0,288.2510969,14.75210155,-99999.0,'11111222,11111222,99999999' 
TABS,ioos:station:wmo:42043:1,1996-09-01T09:30:00Z,28.9818,-94.9186,2.0,292.4143981,15.6308701,-99999.0,'11111222,11111222,99999999' 
TABS,ioos:station:wmo:42043:1,1996-09-01T10:00:00Z,28.9818,-94.9186,2.0,294.1471758,14.20273565,-99999.0,'11111222,11111222,99999999' 
TABS,ioos:station:wmo:42043:1,1996-09-01T10:30:00Z,28.9818,-94.9186,2.0,285.9589737,11.9297653,-99999.0,'11111222,11111222,99999999' 
TABS,ioos:station:wmo:42043:1,1996-09-01T11:00:00Z,28.9818,-94.9186,2.0,279.725167,11.48503374,-99999.0,'11111222,11111222,99999999' 
TABS,ioos:station:wmo:42043:1,1996-09-01T11:30:00Z,28.9818,-94.9186,2.0,271.9890541,12.96781015,-99999.0,'11111222,11111222,99999999' 
TABS,ioos:station:wmo:42043:1,1996-09-01T12:00:00Z,28.9818,-94.9186,2.0,245.1545329,17.73106314,-99999.0,'11111222,11111222,99999999' 
TABS,ioos:station:wmo:42043:1,1996-09-01T12:30:00Z,28.9818,-94.9186,2.0,240.2097708,23.69064161,-99999.0,'11111222,11111222,99999999' 
TABS,ioos:station:wmo:42043:1,1996-09-01T13:00:00Z,28.9818,-94.9186,2.0,235.2039459,25.58476304,-99999.0,'11111222,11111222,99999999' 
TABS,ioos:station:wmo:42043:1,1996-09-01T13:30:00Z,28.9818,-94.9186,2.0,234.4267201,30.21974189,-99999.0,'11111222,11111222,99999999' 
TABS,ioos:station:wmo:42043:1,1996-09-01T14:00:00Z,28.9818,-94.9186,2.0,229.7859734,34.15214342,-99999.0,'11111222,11111222,99999999' 
TABS,ioos:station:wmo:42043:1,1996-09-01T14:30:00Z,28.9818,-94.9186,2.0,234.7734836,38.48783704,-99999.0,'11111222,11111222,99999999' 
TABS,ioos:station:wmo:42043:1,1996-09-01T15:00:00Z,28.9818,-94.9186,2.0,236.5358157,42.14644944,-99999.0,'11111222,11111222,99999999' 
TABS,ioos:station:wmo:42043:1,1996-09-01T15:30:00Z,28.9818,-94.9186,2.0,237.1521618,47.52907847,-99999.0,'11111222,11111222,99999999' 
TABS,ioos:station:wmo:42043:1,1996-09-01T16:00:00Z,28.9818,-94.9186,2.0,234.4593199,49.99345957,-99999.0,'11111222,11111222,99999999' 
TABS,ioos:station:wmo:42043:1,1996-09-01T16:30:00Z,28.9818,-94.9186,2.0,234.1036301,52.59959791,-99999.0,'11111222,11111222,99999999' 
TABS,ioos:station:wmo:42043:1,1996-09-01T17:00:00Z,28.9818,-94.9186,2.0,237.2028881,50.34516163,-99999.0,'11111222,11111222,99999999' 
TABS,ioos:station:wmo:42043:1,1996-09-01T17:30:00Z,28.9818,-94.9186,2.0,240.512579,52.37419689,-99999.0,'11111222,11111222,99999999' 
TABS,ioos:station:wmo:42043:1,1996-09-01T18:00:00Z,28.9818,-94.9186,2.0,244.7252456,56.1887551,-99999.0,'11111222,11111222,99999999' 
TABS,ioos:station:wmo:42043:1,1996-09-01T18:30:00Z,28.9818,-94.9186,2.0,247.4930189,49.03471117,-99999.0,'11111222,11111222,99999999' 
TABS,ioos:station:wmo:42043:1,1996-09-01T19:00:00Z,28.9818,-94.9186,2.0,249.4408098,48.38129907,-99999.0,'11111222,11111222,99999999' 
TABS,ioos:station:wmo:42043:1,1996-09-01T19:30:00Z,28.9818,-94.9186,2.0,250.7675177,43.86819919,-99999.0,'11111222,11111222,99999999' 
TABS,ioos:station:wmo:42043:1,1996-09-01T20:00:00Z,28.9818,-94.9186,2.0,252.8142861,45.38631622,-99999.0,'11111222,11111222,99999999' 
TABS,ioos:station:wmo:42043:1,1996-09-01T20:30:00Z,28.9818,-94.9186,2.0,252.587629,44.81345445,-99999.0,'11111222,11111222,99999999' 
TABS,ioos:station:wmo:42043:1,1996-09-01T21:00:00Z,28.9818,-94.9186,2.0,253.050624,45.48568676,-99999.0,'11111222,11111222,99999999' 
TABS,ioos:station:wmo:42043:1,1996-09-01T21:30:00Z,28.9818,-94.9186,2.0,257.4524144,47.32012785,-99999.0,'11111222,11111222,99999999' 
TABS,ioos:station:wmo:42043:1,1996-09-01T22:00:00Z,28.9818,-94.9186,2.0,260.4432335,43.06766072,-99999.0,'11111222,11111222,99999999' 
TABS,ioos:station:wmo:42043:1,1996-09-01T22:30:00Z,28.9818,-94.9186,2.0,261.647314,44.12803757,-99999.0,'11111222,11111222,99999999' 
TABS,ioos:station:wmo:42043:1,1996-09-01T23:00:00Z,28.9818,-94.9186,2.0,260.1837796,43.69972654,-99999.0,'11111222,11111222,99999999' 
TABS,ioos:station:wmo:42043:1,1996-09-01T23:30:00Z,28.9818,-94.9186,2.0,260.7344311,43.47721357,-99999.0,'11111222,11111222,99999999' 
TABS,ioos:station:wmo:42043:1,1996-09-02T00:00:00Z,28.9818,-94.9186,2.0,261.3045476,44.31936484,-99999.0,'11111222,11111222,99999999' 
TABS,ioos:station:wmo:42043:1,1996-09-02T00:30:00Z,28.9818,-94.9186,2.0,265.009444,46.21517067,-99999.0,'11111222,11111222,99999999' 
TABS,ioos:station:wmo:42043:1,1996-09-02T01:00:00Z,28.9818,-94.9186,2.0,263.7517421,47.96489133,-99999.0,'11111222,11111222,99999999' 
TABS,ioos:station:wmo:42043:1,1996-09-02T01:30:00Z,28.9818,-94.9186,2.0,260.4460038,48.50269477,-99999.0,'11111222,11111222,99999999' 
TABS,ioos:station:wmo:42043:1,1996-09-02T02:00:00Z,28.9818,-94.9186,2.0,269.2356824,45.00399982,-99999.0,'11111222,11111222,99999999' 
TABS,ioos:station:wmo:42043:1,1996-09-02T02:30:00Z,28.9818,-94.9186,2.0,274.1578876,43.17360884,-99999.0,'11111222,11111222,99999999' 
TABS,ioos:station:wmo:42043:1,1996-09-02T03:00:00Z,28.9818,-94.9186,2.0,270.0004209,37.7,-99999.0,'11111222,11111222,99999999' 
TABS,ioos:station:wmo:42043:1,1996-09-02T03:30:00Z,28.9818,-94.9186,2.0,271.0442589,32.93546569,-99999.0,'11111222,11111222,99999999' 
TABS,ioos:station:wmo:42043:1,1996-09-02T04:00:00Z,28.9818,-94.9186,2.0,263.8415027,30.57643537,-99999.0,'11111222,11111222,99999999' 
TABS,ioos:station:wmo:42043:1,1996-09-02T04:30:00Z,28.9818,-94.9186,2.0,263.5225824,27.74710435,-99999.0,'11111222,11111222,99999999' 
TABS,ioos:station:wmo:42043:1,1996-09-02T05:00:00Z,28.9818,-94.9186,2.0,261.5109777,26.21720428,-99999.0,'11111222,11111222,99999999' 
TABS,ioos:station:wmo:42043:1,1996-09-02T05:30:00Z,28.9818,-94.9186,2.0,258.6896731,22.79261723,-99999.0,'11111222,11111222,99999999' 
TABS,ioos:station:wmo:42043:1,1996-09-02T06:00:00Z,28.9818,-94.9186,2.0,257.3414653,16.3370744,-99999.0,'11111222,11111222,99999999' 
TABS,ioos:station:wmo:42043:1,1996-09-02T06:30:00Z,28.9818,-94.9186,2.0,257.6605207,11.13727076,-99999.0,'11111222,11111222,99999999' 
TABS,ioos:station:wmo:42043:1,1996-09-02T07:00:00Z,28.9818,-94.9186,2.0,237.4385167,8.305474098,-99999.0,'11133222,11111222,99999999' 
TABS,ioos:station:wmo:42043:1,1996-09-02T07:30:00Z,28.9818,-94.9186,2.0,215.2667378,10.58214062,-99999.0,'11111222,11111222,99999999' 
TABS,ioos:station:wmo:42043:1,1996-09-02T08:00:00Z,28.9818,-94.9186,2.0,203.4058677,10.87487011,-99999.0,'11111222,11111222,99999999' 
TABS,ioos:station:wmo:42043:1,1996-09-02T08:30:00Z,28.9818,-94.9186,2.0,189.195899,10.26189554,-99999.0,'11111222,11111222,99999999' 
TABS,ioos:station:wmo:42043:1,1996-09-02T09:00:00Z,28.9818,-94.9186,2.0,183.5429839,9.70855808,-99999.0,'11133222,11111222,99999999' 
TABS,ioos:station:wmo:42043:1,1996-09-02T09:30:00Z,28.9818,-94.9186,2.0,183.2003137,10.7467623,-99999.0,'11111222,11111222,99999999' 
TABS,ioos:station:wmo:42043:1,1996-09-02T10:00:00Z,28.9818,-94.9186,2.0,182.5433336,10.13999014,-99999.0,'11111222,11111222,99999999' 
TABS,ioos:station:wmo:42043:1,1996-09-02T10:30:00Z,28.9818,-94.9186,2.0,186.5779757,11.69700816,-99999.0,'11111222,11111222,99999999' 
TABS,ioos:station:wmo:42043:1,1996-09-02T11:00:00Z,28.9818,-94.9186,2.0,175.1945154,15.99622455,-99999.0,'11111222,11111222,99999999' 
TABS,ioos:station:wmo:42043:1,1996-09-02T11:30:00Z,28.9818,-94.9186,2.0,179.126004,19.67228761,-99999.0,'11111222,11111222,99999999' 
TABS,ioos:station:wmo:42043:1,1996-09-02T12:00:00Z,28.9818,-94.9186,2.0,185.9461525,24.42140455,-99999.0,'11111222,11111222,99999999' 
TABS,ioos:station:wmo:42043:1,1996-09-02T12:30:00Z,28.9818,-94.9186,2.0,195.0241131,27.00308131,-99999.0,'11111222,11111222,99999999' 
TABS,ioos:station:wmo:42043:1,1996-09-02T13:00:00Z,28.9818,-94.9186,2.0,200.4234835,32.43921084,-99999.0,'11111222,11111222,99999999' 
TABS,ioos:station:wmo:42043:1,1996-09-02T13:30:00Z,28.9818,-94.9186,2.0,195.8460953,36.54895347,-99999.0,'11111222,11111222,99999999' 
TABS,ioos:station:wmo:42043:1,1996-09-02T14:00:00Z,28.9818,-94.9186,2.0,193.8800018,40.97654573,-99999.0,'11111222,11111222,99999999' 
TABS,ioos:station:wmo:42043:1,1996-09-02T14:30:00Z,28.9818,-94.9186,2.0,198.3714638,45.84672944,-99999.0,'11111222,11111222,99999999' 
TABS,ioos:station:wmo:42043:1,1996-09-02T15:00:00Z,28.9818,-94.9186,2.0,202.8036207,45.74562056,-99999.0,'11111222,11111222,99999999' 
TABS,ioos:station:wmo:42043:1,1996-09-02T15:30:00Z,28.9818,-94.9186,2.0,207.2322511,51.44199841,-99999.0,'11111222,11111222,99999999' 
TABS,ioos:station:wmo:42043:1,1996-09-02T16:00:00Z,28.9818,-94.9186,2.0,207.6761162,51.6494695,-99999.0,'11111222,11111222,99999999' 
TABS,ioos:station:wmo:42043:1,1996-09-02T16:30:00Z,28.9818,-94.9186,2.0,212.7316342,52.07976286,-99999.0,'11111222,11111222,99999999' 
TABS,ioos:station:wmo:42043:1,1996-09-02T17:00:00Z,28.9818,-94.9186,2.0,216.8365076,51.94000866,-99999.0,'11111222,11111222,99999999' 
TABS,ioos:station:wmo:42043:1,1996-09-02T17:30:00Z,28.9818,-94.9186,2.0,222.5101372,48.51088538,-99999.0,'11111222,11111222,99999999' 
TABS,ioos:station:wmo:42043:1,1996-09-02T18:00:00Z,28.9818,-94.9186,2.0,225.240017,50.5727219,-99999.0,'11111222,11111222,99999999' 
TABS,ioos:station:wmo:42043:1,1996-09-02T18:30:00Z,28.9818,-94.9186,2.0,227.789599,49.68364318,-99999.0,'11111222,11111222,99999999' 
TABS,ioos:station:wmo:42043:1,1996-09-02T19:00:00Z,28.9818,-94.9186,2.0,229.0983558,53.02720811,-99999.0,'11111222,11111222,99999999' 
TABS,ioos:station:wmo:42043:1,1996-09-02T19:30:00Z,28.9818,-94.9186,2.0,232.1500078,57.54641344,-99999.0,'11111222,11111222,99999999' 
TABS,ioos:station:wmo:42043:1,1996-09-02T20:00:00Z,28.9818,-94.9186,2.0,235.5383702,58.72588271,-99999.0,'11111222,11111222,99999999' 
TABS,ioos:station:wmo:42043:1,1996-09-02T20:30:00Z,28.9818,-94.9186,2.0,239.7847809,56.55305916,-99999.0,'11111222,11111222,99999999' 
TABS,ioos:station:wmo:42043:1,1996-09-02T21:00:00Z,28.9818,-94.9186,2.0,245.8203064,48.02317149,-99999.0,'11111222,11111222,99999999' 
TABS,ioos:station:wmo:42043:1,1996-09-02T21:30:00Z,28.9818,-94.9186,2.0,247.4702338,48.23082935,-99999.0,'11111222,11111222,99999999' 
TABS,ioos:station:wmo:42043:1,1996-09-02T22:00:00Z,28.9818,-94.9186,2.0,253.2143193,45.91632825,-99999.0,'11111222,11111222,99999999' 
TABS,ioos:station:wmo:42043:1,1996-09-02T22:30:00Z,28.9818,-94.9186,2.0,257.4721314,46.70187362,-99999.0,'11111222,11111222,99999999' 
TABS,ioos:station:wmo:42043:1,1996-09-02T23:00:00Z,28.9818,-94.9186,2.0,266.0269079,43.01335258,-99999.0,'11111222,11111222,99999999' 
TABS,ioos:station:wmo:42043:1,1996-09-02T23:30:00Z,28.9818,-94.9186,2.0,274.4692897,36.32042125,-99999.0,'11111222,11111222,99999999' 
TABS,ioos:station:wmo:42043:1,1996-09-03T00:00:00Z,28.9818,-94.9186,2.0,281.2612545,32.05715521,-99999.0,'11111222,11111222,99999999' 
TABS,ioos:station:wmo:42043:1,1996-09-03T00:30:00Z,28.9818,-94.9186,2.0,291.2797651,26.70038389,-99999.0,'11111222,11111222,99999999' 
TABS,ioos:station:wmo:42043:1,1996-09-03T01:00:00Z,28.9818,-94.9186,2.0,294.9248129,25.46136289,-99999.0,'11111222,11111222,99999999' 
TABS,ioos:station:wmo:42043:1,1996-09-03T01:30:00Z,28.9818,-94.9186,2.0,302.8676032,26.07359776,-99999.0,'11111222,11111222,99999999' 
TABS,ioos:station:wmo:42043:1,1996-09-03T02:00:00Z,28.9818,-94.9186,2.0,307.7864617,26.01532625,-99999.0,'11111222,11111222,99999999' 
TABS,ioos:station:wmo:42043:1,1996-09-03T02:30:00Z,28.9818,-94.9186,2.0,313.4165898,22.77046552,-99999.0,'11111222,11111222,99999999' 
TABS,ioos:station:wmo:42043:1,1996-09-03T03:00:00Z,28.9818,-94.9186,2.0,315.9779622,18.64912062,-99999.0,'11111222,11111222,99999999' 
TABS,ioos:station:wmo:42043:1,1996-09-03T03:30:00Z,28.9818,-94.9186,2.0,335.3572691,17.86729134,-99999.0,'11111222,11111222,99999999' 
TABS,ioos:station:wmo:42043:1,1996-09-03T04:00:00Z,28.9818,-94.9186,2.0,356.511607,19.55623941,-99999.0,'11111222,11111222,99999999' 
TABS,ioos:station:wmo:42043:1,1996-09-03T04:30:00Z,28.9818,-94.9186,2.0,7.169931598,19.0691059,-99999.0,'11111222,11111222,99999999' 
TABS,ioos:station:wmo:42043:1,1996-09-03T05:00:00Z,28.9818,-94.9186,2.0,12.25591644,16.15824867,-99999.0,'11111222,11111222,99999999' 
TABS,ioos:station:wmo:42043:1,1996-09-03T05:30:00Z,28.9818,-94.9186,2.0,15.64890272,20.42716329,-99999.0,'11111222,11111222,99999999' 
TABS,ioos:station:wmo:42043:1,1996-09-03T06:00:00Z,28.9818,-94.9186,2.0,36.15831135,16.42326703,-99999.0,'11111222,11111222,99999999' 
TABS,ioos:station:wmo:42043:1,1996-09-03T06:30:00Z,28.9818,-94.9186,2.0,40.8601675,17.5324984,-99999.0,'11111222,11111222,99999999' 
TABS,ioos:station:wmo:42043:1,1996-09-03T07:00:00Z,28.9818,-94.9186,2.0,46.43458787,21.18448725,-99999.0,'11111222,11111222,99999999' 
TABS,ioos:station:wmo:42043:1,1996-09-03T07:30:00Z,28.9818,-94.9186,2.0,57.58522867,24.17704903,-99999.0,'11111222,11111222,99999999' 
TABS,ioos:station:wmo:42043:1,1996-09-03T08:00:00Z,28.9818,-94.9186,2.0,74.9227456,21.7590372,-99999.0,'11111222,11111222,99999999' 
TABS,ioos:station:wmo:42043:1,1996-09-03T08:30:00Z,28.9818,-94.9186,2.0,92.20735788,23.10714608,-99999.0,'11111222,11111222,99999999' 
TABS,ioos:station:wmo:42043:1,1996-09-03T09:00:00Z,28.9818,-94.9186,2.0,104.8158755,26.20112402,-99999.0,'11111222,11111222,99999999' 
TABS,ioos:station:wmo:42043:1,1996-09-03T09:30:00Z,28.9818,-94.9186,2.0,109.8249487,27.24471508,-99999.0,'11111222,11111222,99999999' 
TABS,ioos:station:wmo:42043:1,1996-09-03T10:00:00Z,28.9818,-94.9186,2.0,113.4606464,29.56395271,-99999.0,'11111222,11111222,99999999' 
TABS,ioos:station:wmo:42043:1,1996-09-03T10:30:00Z,28.9818,-94.9186,2.0,121.5435582,27.62126174,-99999.0,'11111222,11111222,99999999' 
TABS,ioos:station:wmo:42043:1,1996-09-03T11:00:00Z,28.9818,-94.9186,2.0,125.8208302,27.74865042,-99999.0,'11111222,11111222,99999999' 
TABS,ioos:station:wmo:42043:1,1996-09-03T11:30:00Z,28.9818,-94.9186,2.0,134.375179,29.18403159,-99999.0,'11111222,11111222,99999999' 
TABS,ioos:station:wmo:42043:1,1996-09-03T12:00:00Z,28.9818,-94.9186,2.0,141.9150212,28.01429814,-99999.0,'11111222,11111222,99999999' 
TABS,ioos:station:wmo:42043:1,1996-09-03T12:30:00Z,28.9818,-94.9186,2.0,156.5757688,30.36222159,-99999.0,'11111222,11111222,99999999' 
TABS,ioos:station:wmo:42043:1,1996-09-03T13:00:00Z,28.9818,-94.9186,2.0,166.5077238,30.64575827,-99999.0,'11111222,11111222,99999999' 
TABS,ioos:station:wmo:42043:1,1996-09-03T13:30:00Z,28.9818,-94.9186,2.0,181.5693821,32.49219137,-99999.0,'11111222,11111222,99999999' 
TABS,ioos:station:wmo:42043:1,1996-09-03T14:00:00Z,28.9818,-94.9186,2.0,185.9364385,30.26230163,-99999.0,'11111222,11111222,99999999' 
TABS,ioos:station:wmo:42043:1,1996-09-03T14:30:00Z,28.9818,-94.9186,2.0,201.4101465,32.65342861,-99999.0,'11111222,11111222,99999999' 
TABS,ioos:station:wmo:42043:1,1996-09-03T15:00:00Z,28.9818,-94.9186,2.0,212.7891807,39.34974587,-99999.0,'11111222,11111222,99999999' 
TABS,ioos:station:wmo:42043:1,1996-09-03T15:30:00Z,28.9818,-94.9186,2.0,216.6832359,43.65623094,-99999.0,'11111222,11111222,99999999' 
TABS,ioos:station:wmo:42043:1,1996-09-03T16:00:00Z,28.9818,-94.9186,2.0,217.3461804,45.92558873,-99999.0,'11111222,11111222,99999999' 
TABS,ioos:station:wmo:42043:1,1996-09-03T16:30:00Z,28.9818,-94.9186,2.0,221.2931525,45.61187236,-99999.0,'11111222,11111222,99999999' 
TABS,ioos:station:wmo:42043:1,1996-09-03T17:00:00Z,28.9818,-94.9186,2.0,228.1252929,46.42698569,-99999.0,'11111222,11111222,99999999' 
TABS,ioos:station:wmo:42043:1,1996-09-03T17:30:00Z,28.9818,-94.9186,2.0,234.3121545,46.231844,-99999.0,'11111222,11111222,99999999' 
TABS,ioos:station:wmo:42043:1,1996-09-03T18:00:00Z,28.9818,-94.9186,2.0,238.0079999,48.66026408,-99999.0,'11111222,11111222,99999999' 
TABS,ioos:station:wmo:42043:1,1996-09-03T18:30:00Z,28.9818,-94.9186,2.0,241.7787997,52.93194215,-99999.0,'11111222,11111222,99999999' 
TABS,ioos:station:wmo:42043:1,1996-09-03T19:00:00Z,28.9818,-94.9186,2.0,245.9405817,54.8226787,-99999.0,'11111222,11111222,99999999' 
TABS,ioos:station:wmo:42043:1,1996-09-03T19:30:00Z,28.9818,-94.9186,2.0,247.3539207,54.56692863,-99999.0,'11111222,11111222,99999999' 
TABS,ioos:station:wmo:42043:1,1996-09-03T20:00:00Z,28.9818,-94.9186,2.0,246.2828153,57.77982001,-99999.0,'11111222,11111222,99999999' 
TABS,ioos:station:wmo:42043:1,1996-09-03T20:30:00Z,28.9818,-94.9186,2.0,249.7349113,58.92746813,-99999.0,'11111222,11111222,99999999' 
TABS,ioos:station:wmo:42043:1,1996-09-03T21:00:00Z,28.9818,-94.9186,2.0,252.071975,58.57400277,-99999.0,'11111222,11111222,99999999' 
TABS,ioos:station:wmo:42043:1,1996-09-03T21:30:00Z,28.9818,-94.9186,2.0,254.3268665,55.71132829,-99999.0,'11111222,11111222,99999999' 
TABS,ioos:station:wmo:42043:1,1996-09-03T22:00:00Z,28.9818,-94.9186,2.0,258.4990977,53.06539739,-99999.0,'11111222,11111222,99999999' 
TABS,ioos:station:wmo:42043:1,1996-09-03T22:30:00Z,28.9818,-94.9186,2.0,268.9530386,48.72812843,-99999.0,'11111222,11111222,99999999' 
TABS,ioos:station:wmo:42043:1,1996-09-03T23:00:00Z,28.9818,-94.9186,2.0,276.4080534,44.08540008,-99999.0,'11111222,11111222,99999999' 
TABS,ioos:station:wmo:42043:1,1996-09-03T23:30:00Z,28.9818,-94.9186,2.0,281.001894,38.25300642,-99999.0,'11111222,11111222,99999999' 
TABS,ioos:station:wmo:42043:1,1996-09-04T00:00:00Z,28.9818,-94.9186,2.0,301.3038847,33.83555083,-99999.0,'11111222,11111222,99999999' 
TABS,ioos:station:wmo:42043:1,1996-09-04T00:30:00Z,28.9818,-94.9186,2.0,309.8468347,30.46510299,-99999.0,'11111222,11111222,99999999' 
TABS,ioos:station:wmo:42043:1,1996-09-04T01:00:00Z,28.9818,-94.9186,2.0,324.1804187,29.03087494,-99999.0,'11111222,11111222,99999999' 
TABS,ioos:station:wmo:42043:1,1996-09-04T01:30:00Z,28.9818,-94.9186,2.0,342.2791064,26.90674637,-99999.0,'11111222,11111222,99999999' 
TABS,ioos:station:wmo:42043:1,1996-09-04T02:00:00Z,28.9818,-94.9186,2.0,355.2284187,23.32083189,-99999.0,'11111222,11111222,99999999' 
TABS,ioos:station:wmo:42043:1,1996-09-04T02:30:00Z,28.9818,-94.9186,2.0,2.714912658,18.79108831,-99999.0,'11111222,11111222,99999999' 
TABS,ioos:station:wmo:42043:1,1996-09-04T03:00:00Z,28.9818,-94.9186,2.0,10.92698232,17.30371347,-99999.0,'11111222,11111222,99999999' 
TABS,ioos:station:wmo:42043:1,1996-09-04T03:30:00Z,28.9818,-94.9186,2.0,24.77529309,21.33355338,-99999.0,'11111222,11111222,99999999' 
TABS,ioos:station:wmo:42043:1,1996-09-04T04:00:00Z,28.9818,-94.9186,2.0,37.65499094,21.46001398,-99999.0,'11111222,11111222,99999999' 
TABS,ioos:station:wmo:42043:1,1996-09-04T04:30:00Z,28.9818,-94.9186,2.0,51.98442841,22.50449955,-99999.0,'11111222,11111222,99999999' 
TABS,ioos:station:wmo:42043:1,1996-09-04T05:00:00Z,28.9818,-94.9186,2.0,63.97046868,21.05573556,-99999.0,'11111222,11111222,99999999' 
TABS,ioos:station:wmo:42043:1,1996-09-04T05:30:00Z,28.9818,-94.9186,2.0,76.87850037,22.33310099,-99999.0,'11111222,11111222,99999999' 
TABS,ioos:station:wmo:42043:1,1996-09-04T06:00:00Z,28.9818,-94.9186,2.0,86.88973369,21.93230722,-99999.0,'11111222,11111222,99999999' 
TABS,ioos:station:wmo:42043:1,1996-09-04T06:30:00Z,28.9818,-94.9186,2.0,95.27456169,25.88962727,-99999.0,'11111222,11111222,99999999' 
TABS,ioos:station:wmo:42043:1,1996-09-04T07:00:00Z,28.9818,-94.9186,2.0,104.1972698,26.7469344,-99999.0,'11111222,11111222,99999999' 
TABS,ioos:station:wmo:42043:1,1996-09-04T07:30:00Z,28.9818,-94.9186,2.0,106.3242858,30.73921925,-99999.0,'11111222,11111222,99999999' 
TABS,ioos:station:wmo:42043:1,1996-09-04T08:00:00Z,28.9818,-94.9186,2.0,110.5916648,30.08192148,-99999.0,'11111222,11111222,99999999' 
TABS,ioos:station:wmo:42043:1,1996-09-04T08:30:00Z,28.9818,-94.9186,2.0,121.9381627,29.8485008,-99999.0,'11111222,11111222,99999999' 
TABS,ioos:station:wmo:42043:1,1996-09-04T09:00:00Z,28.9818,-94.9186,2.0,136.3363005,26.98346345,-99999.0,'11111222,11111222,99999999' 
TABS,ioos:station:wmo:42043:1,1996-09-04T09:30:00Z,28.9818,-94.9186,2.0,157.4502671,27.58925153,-99999.0,'11111222,11111222,99999999' 
TABS,ioos:station:wmo:42043:1,1996-09-04T10:00:00Z,28.9818,-94.9186,2.0,155.1527357,24.4646357,-99999.0,'11111222,11111222,99999999' 
TABS,ioos:station:wmo:42043:1,1996-09-04T10:30:00Z,28.9818,-94.9186,2.0,161.9116589,23.51196504,-99999.0,'11111222,11111222,99999999' 
TABS,ioos:station:wmo:42043:1,1996-09-04T11:00:00Z,28.9818,-94.9186,2.0,165.1811739,29.12881906,-99999.0,'11111222,11111222,99999999' 
TABS,ioos:station:wmo:42043:1,1996-09-04T11:30:00Z,28.9818,-94.9186,2.0,171.8288197,35.67213198,-99999.0,'11111222,11111222,99999999' 
TABS,ioos:station:wmo:42043:1,1996-09-04T12:00:00Z,28.9818,-94.9186,2.0,180.2207796,38.89028928,-99999.0,'11111222,11111222,99999999' 
TABS,ioos:station:wmo:42043:1,1996-09-04T12:30:00Z,28.9818,-94.9186,2.0,184.5926628,40.9615344,-99999.0,'11111222,11111222,99999999' 
TABS,ioos:station:wmo:42043:1,1996-09-04T13:00:00Z,28.9818,-94.9186,2.0,193.9392696,40.22459074,-99999.0,'11111222,11111222,99999999' 
TABS,ioos:station:wmo:42043:1,1996-09-04T13:30:00Z,28.9818,-94.9186,2.0,197.3805106,40.90782321,-99999.0,'11111222,11111222,99999999' 
TABS,ioos:station:wmo:42043:1,1996-09-04T14:00:00Z,28.9818,-94.9186,2.0,200.7231938,41.25952133,-99999.0,'11111222,11111222,99999999' 
TABS,ioos:station:wmo:42043:1,1996-09-04T14:30:00Z,28.9818,-94.9186,2.0,211.384562,44.33701163,-99999.0,'11111222,11111222,99999999' 
TABS,ioos:station:wmo:42043:1,1996-09-04T15:00:00Z,28.9818,-94.9186,2.0,222.8835089,42.70301746,-99999.0,'11111222,11111222,99999999' 
TABS,ioos:station:wmo:42043:1,1996-09-04T15:30:00Z,28.9818,-94.9186,2.0,223.507791,40.46729667,-99999.0,'11111222,11111222,99999999' 
TABS,ioos:station:wmo:42043:1,1996-09-04T16:00:00Z,28.9818,-94.9186,2.0,230.2709367,40.09990648,-99999.0,'11111222,11111222,99999999' 